GFSFLT1_con_3kmhel_228.txt.gz
Helicity
66 42 75 130 146 163 180 251 247 267 312 262 250 265 290 276 224 221 206 185 185 183 154 135 136 123 120 125 113 113 97 83
127 110 92 127 200 212 218 262 253 362 376 372 277 297 335 277 195 186 215 200 198 194 167 148 148 135 121 123 129 132 147 138
148 145 135 123 146 212 218 258 318 369 377 362 335 337 306 273 212 182 196 214 211 207 194 173 168 154 148 174 200 201 191 177
133 124 114 113 171 214 239 259 341 369 349 424 487 354 321 289 250 236 231 230 226 220 214 203 201 196 188 216 230 233 240 225
107 132 156 177 158 157 157 204 270 350 431 413 445 428 395 311 330 294 270 251 238 229 227 231 223 233 246 253 244 254 267 266
47 82 115 126 88 111 143 170 227 306 389 385 375 378 323 370 367 332 316 304 272 267 274 294 293 297 278 275 278 290 290 294
81 70 93 100 79 112 152 192 239 284 296 329 335 341 405 446 389 371 355 325 315 289 325 336 330 362 343 330 336 318 315 277
45 69 121 99 77 45 120 182 218 255 276 265 312 336 414 423 464 430 388 360 339 327 361 369 396 429 412 413 390 335 295 272
71 44 51 62 55 47 74 117 146 247 292 285 314 295 386 419 418 442 327 326 396 428 401 373 411 439 480 423 384 322 271 286
152 121 130 117 95 85 90 116 155 217 232 300 304 369 339 409 476 386 315 394 499 467 468 459 467 478 452 441 392 331 297 230
13 39 58 125 99 106 106 130 151 229 241 302 344 337 405 438 510 363 376 453 495 516 502 472 519 536 511 389 361 273 277 262
137 110 34 -20 32 68 135 153 167 238 301 301 336 413 428 467 398 362 402 453 474 500 531 612 640 580 413 373 252 268 266 225
157 123 113 127 125 100 45 141 146 199 239 331 360 394 416 435 355 403 417 441 468 543 666 652 630 530 283 362 249 250 220 190
214 212 162 167 131 28 2 82 114 157 246 285 342 402 417 401 353 366 416 459 525 567 673 680 606 508 220 241 243 225 262 203
99 124 126 123 41 -37 -42 -16 70 138 258 293 318 337 358 321 325 356 416 452 479 556 612 620 378 251 302 309 242 317 267 199
142 140 141 123 98 52 58 97 105 165 246 272 290 319 327 315 336 382 432 407 455 522 515 416 345 248 286 297 288 295 211 208
159 128 126 75 16 91 99 143 192 198 211 241 282 292 303 338 394 422 415 433 489 493 432 392 351 326 297 335 310 245 233 211
30 69 92 80 51 18 67 140 178 221 257 281 271 317 358 361 383 440 433 458 489 458 444 426 410 394 372 303 304 298 263 193
128 57 97 118 62 31 80 145 148 184 250 308 339 323 374 400 418 467 522 511 516 485 499 475 470 403 355 349 335 314 268 195

GFSFLT1_con_3kmhel_231.txt.gz
Helicity
105 96 71 64 72 93 71 96 97 131 172 178 137 119 101 97 129 147 162 163 157 155 135 125 129 125 113 112 97 90 77 69
142 102 75 82 93 90 93 96 104 163 170 204 202 193 168 142 120 137 160 185 165 158 147 137 138 130 115 105 95 108 106 84
171 145 105 86 88 100 114 130 124 167 214 240 250 205 187 171 161 125 158 163 187 175 152 139 138 135 114 115 134 167 147 140
140 151 139 109 102 124 132 136 172 185 191 238 277 251 207 170 194 197 234 175 173 179 170 151 148 157 153 150 186 167 210 175
105 130 140 130 112 125 142 146 137 160 192 232 302 339 305 273 236 247 280 196 183 193 188 168 163 186 176 172 214 229 266 226
78 77 83 96 108 120 110 130 131 141 192 237 271 241 183 191 234 239 265 235 223 215 199 177 177 202 196 209 271 268 234 223
25 73 91 85 73 84 100 102 89 138 162 192 221 210 215 209 210 248 292 270 265 268 240 212 199 221 258 257 263 290 284 248
62 103 105 104 109 108 70 70 81 111 134 142 158 159 174 208 204 236 314 333 303 278 281 268 233 261 277 288 279 286 306 281
175 154 137 129 98 103 95 68 75 65 86 107 131 167 201 196 217 230 319 359 242 245 275 256 258 289 281 314 359 367 343 339
7 80 137 151 160 123 107 102 99 99 80 107 126 165 203 231 253 257 274 248 220 286 282 272 285 303 359 382 371 367 363 328
118 79 33 35 130 169 141 123 108 92 111 140 172 168 190 217 263 277 297 250 266 266 299 301 312 344 379 383 406 366 397 284
229 219 204 110 81 118 155 159 147 114 110 132 179 194 202 236 302 341 380 261 248 270 287 339 331 383 448 474 430 402 328 302
219 218 216 258 264 213 161 131 114 88 84 125 152 194 245 283 368 458 393 326 222 239 295 340 381 450 532 520 489 376 255 270
205 215 203 212 231 271 262 224 157 91 78 114 160 212 275 323 414 423 378 359 281 270 354 390 415 499 554 497 390 339 172 200
124 123 149 195 186 224 220 193 108 27 4 107 224 278 287 315 327 336 384 296 295 320 352 395 478 537 488 431 441 249 255 190
195 175 173 131 156 166 194 172 142 48 13 112 210 237 258 262 307 377 319 248 272 301 339 392 470 496 440 372 282 308 215 288
158 146 138 148 139 144 194 206 109 92 79 87 147 226 267 284 298 268 252 257 286 325 333 368 428 436 389 336 275 286 239 243
98 104 116 75 67 63 101 146 120 78 99 141 147 179 232 264 257 238 250 288 323 341 376 424 406 375 366 337 297 258 266 215
80 96 89 74 56 50 74 66 72 61 47 91 162 200 240 273 241 271 315 341 361 381 434 423 425 382 378 328 301 288 232 240

GFSFLT1_con_3kmhel_237.txt.gz
Helicity
49 84 81 82 60 105 113 126 75 81 84 78 62 51 60 54 74 85 123 131 118 125 107 117 162 111 117 108 114 107 93 107
40 75 112 89 65 111 120 133 104 115 115 131 111 105 87 86 89 108 134 141 108 159 128 150 197 145 123 143 120 96 139 108
51 66 96 151 76 71 129 104 104 115 127 117 107 113 112 108 113 127 147 143 152 166 196 187 204 172 145 157 153 129 143 96
58 57 100 75 164 215 120 107 94 94 97 124 131 120 116 131 151 157 167 167 166 175 220 219 270 235 187 187 191 150 192 145
48 53 76 80 83 94 144 134 99 116 112 143 153 188 190 220 239 221 198 202 203 216 235 249 282 333 215 233 212 193 213 162
135 67 73 70 71 93 124 115 113 107 132 150 179 187 216 192 202 201 231 238 214 232 265 276 265 344 282 235 238 232 207 184
124 177 151 102 61 63 84 46 76 110 137 148 149 142 155 198 205 248 270 286 303 283 257 252 267 295 314 263 269 283 207 191
182 180 137 109 132 137 169 207 162 118 119 137 124 129 145 150 202 274 321 307 329 285 292 268 287 276 310 307 276 275 229 270
123 70 124 169 168 213 166 127 142 148 155 122 168 174 192 210 216 284 280 250 257 243 255 225 248 239 279 271 277 267 242 213
232 286 283 369 342 284 236 227 251 230 223 181 160 169 191 192 176 198 226 238 249 241 253 207 213 211 221 263 277 253 262 296
195 137 113 85 153 157 182 215 253 242 207 228 185 162 158 139 168 163 146 204 185 233 245 160 165 192 250 274 315 402 434 432
153 148 153 154 122 128 112 148 181 198 194 229 234 188 169 158 142 146 140 165 207 279 211 162 147 255 317 385 465 435 477 410
124 137 146 141 144 180 197 197 170 202 183 182 188 173 172 150 132 127 138 136 188 216 171 174 181 265 387 433 472 450 440 476
169 119 86 116 121 117 131 147 201 216 205 211 179 155 149 148 133 122 132 120 170 187 218 211 262 365 443 480 550 487 419 411
216 189 140 110 113 144 173 158 153 169 217 228 216 244 220 150 129 145 206 248 241 214 266 235 296 408 508 606 580 495 487 452
103 165 121 92 63 57 75 88 108 128 151 172 165 145 172 217 148 142 206 220 198 151 275 331 408 519 581 579 579 545 497 502
56 53 39 42 37 23 33 50 72 84 93 102 131 112 107 113 158 144 139 200 232 249 238 366 423 467 480 523 478 507 465 433
68 107 118 118 113 125 82 86 72 88 86 82 83 100 89 91 91 135 195 254 292 333 361 413 460 514 431 429 436 428 395 350
53 60 77 119 170 173 162 118 100 89 92 97 75 87 66 71 77 100 170 218 264 342 402 433 519 496 470 394 435 445 420 353

GFSFLT1_con_3kmhel_243.txt.gz
Helicity
153 109 73 124 350 481 440 357 255 211 174 165 162 128 110 140 122 168 169 113 92 149 146 116 109 141 183 220 199 178 176 128
51 85 59 116 285 455 418 402 304 297 249 201 184 177 183 140 153 128 201 189 145 142 159 148 143 146 184 226 250 214 185 167
144 7 65 157 263 388 400 391 405 338 306 252 229 233 175 191 145 148 207 239 230 179 173 163 149 183 204 241 281 275 225 207
74 83 45 113 273 325 424 405 412 393 336 314 292 281 218 171 141 124 171 232 271 247 198 205 178 196 221 275 305 322 266 242
81 110 160 107 234 357 436 410 460 401 396 384 296 315 293 195 173 203 209 238 285 306 290 253 250 232 221 284 338 339 347 286
100 77 51 244 238 371 417 380 382 427 420 358 359 279 267 230 208 213 215 248 288 322 332 323 287 298 265 311 355 379 346 310
127 24 27 89 69 312 348 317 318 373 442 392 302 249 201 210 244 230 266 258 297 339 355 370 351 333 307 362 402 398 384 352
138 172 181 257 248 269 290 276 282 359 431 362 177 230 225 198 225 270 269 304 330 322 362 367 364 344 330 353 385 416 406 403
361 322 269 351 464 370 341 355 334 181 221 180 156 230 280 159 182 219 287 331 354 322 330 340 344 344 339 354 391 406 400 399
424 466 386 347 443 456 388 371 391 389 364 252 154 114 137 212 219 253 281 287 317 372 361 367 390 394 402 381 402 362 390 399
184 239 342 286 317 363 383 342 330 313 368 392 370 288 155 184 242 237 236 208 241 311 368 380 400 437 429 450 388 366 372 398
363 222 177 213 252 243 225 227 228 285 298 326 354 365 296 251 214 222 229 230 222 247 305 344 345 377 453 462 373 334 331 353
492 333 215 247 263 281 265 188 115 166 223 325 318 332 368 350 388 407 247 203 184 184 220 272 302 327 388 386 325 320 315 338
287 291 244 174 140 148 172 147 135 143 124 176 215 225 264 302 312 300 297 199 137 154 198 237 266 280 309 327 304 304 326 367
311 230 169 172 210 173 162 141 128 134 123 140 161 154 120 96 148 216 250 260 211 148 185 206 228 255 295 309 315 304 312 402
171 81 123 116 53 72 79 69 76 90 101 128 110 77 76 71 89 103 128 192 235 237 157 189 214 207 241 279 286 314 381 429
183 151 80 70 58 35 35 56 88 78 112 134 132 110 67 49 38 67 92 114 118 169 220 189 180 216 217 236 280 340 379 430
180 202 179 178 237 107 73 71 80 88 74 70 84 78 73 55 15 1 41 57 76 116 135 156 146 162 167 230 336 342 385 401
166 213 224 213 200 232 203 97 55 34 36 48 61 46 34 35 2 -29 -8 11 30 55 84 104 103 120 128 212 320 370 429 412

GFSFLT1_con_3kmhel_246.txt.gz
Helicity
91 95 105 252 299 349 361 295 225 235 302 271 211 161 118 139 138 105 107 84 125 127 114 103 113 105 90 94 89 90 73 76
23 81 97 145 254 335 382 415 265 292 313 297 245 186 175 125 117 95 91 89 79 120 97 103 131 146 135 119 118 120 105 126
107 87 106 144 172 274 366 422 472 396 341 293 302 276 244 195 141 95 85 92 95 99 103 83 94 111 145 156 173 174 155 208
52 146 196 212 184 213 289 376 471 494 404 337 292 282 305 266 178 137 131 115 110 129 104 124 134 147 138 166 194 210 209 234
116 131 183 115 35 88 241 381 420 405 439 468 369 346 344 260 250 235 213 179 163 140 166 161 157 192 197 199 229 239 275 266
108 141 135 133 84 35 207 340 352 368 471 500 527 382 276 262 308 287 284 265 228 200 180 202 197 194 183 219 264 284 293 295
102 156 173 196 105 51 158 314 281 399 453 432 471 452 329 263 263 294 278 308 292 251 230 242 256 250 233 275 317 343 337 337
158 281 332 292 281 212 346 347 462 431 406 397 382 423 379 309 252 259 286 280 291 287 316 310 323 313 303 303 316 314 333 365
306 449 501 491 457 494 329 366 431 356 382 362 325 300 309 265 279 235 251 264 278 229 258 293 306 329 340 341 364 340 324 356
415 474 568 558 565 604 529 480 514 413 290 229 226 207 171 130 183 199 218 223 227 244 273 288 314 325 355 366 398 347 335 351
252 332 419 474 520 502 532 488 472 524 518 509 511 381 234 153 165 181 170 188 282 328 280 274 266 299 336 373 366 367 364 360
162 203 252 205 233 333 368 387 389 412 368 356 379 395 344 306 307 267 145 157 209 274 245 244 243 273 314 343 341 367 393 357
390 232 246 239 247 189 210 261 198 181 172 195 221 242 269 285 306 341 348 296 229 187 197 238 221 230 277 305 288 293 379 324
586 280 294 320 218 221 194 236 234 205 195 196 178 143 178 207 234 230 236 273 269 283 214 185 183 194 226 265 246 249 295 284
492 453 394 345 268 178 147 197 217 245 245 223 246 274 263 239 195 191 201 219 235 243 189 145 121 180 194 199 201 229 236 239
261 339 384 269 288 283 129 59 64 52 80 218 240 236 216 217 216 178 134 148 168 165 154 134 138 121 132 169 196 221 245 257
3 60 157 125 155 159 104 83 87 61 54 34 58 71 86 118 137 131 110 102 104 102 113 99 125 152 203 128 168 200 206 248
60 67 64 63 45 30 64 57 49 59 29 4 4 4 35 24 40 80 100 94 90 82 76 71 83 94 139 156 132 182 212 227
54 45 53 50 64 87 48 31 23 19 25 18 5 -16 -17 -33 -13 40 61 53 34 69 79 69 84 89 120 120 117 136 161 227